Location: Cedar Falls
(42.5280°N, 92.4450°W)
Time: 03:43:10
(UTC-05:00)

NOSS 3-1 (C) - Visible Passes

Search period start: 21 October 2014 00:00
Search period end: 31 October 2014 00:00
Orbit: 892 x 1317 km, 63.4° (Epoch: 19 October)

Date Brightness Start Highest point End Pass type
(mag) Time Alt. Az. Time Alt. Az. Time Alt. Az.
21 Oct 5.9 04:05:16 12° NNW 04:06:47 13° N 04:09:53 10° NNE visible
21 Oct 5.8 05:55:18 10° NNW 06:00:45 22° NNE 06:06:32 10° ENE visible
22 Oct 6.1 03:21:31 13° N 03:21:31 13° N 03:23:50 10° NNE visible
22 Oct 5.9 05:10:11 10° NNW 05:14:47 18° NNE 05:19:37 10° ENE visible
22 Oct 4.9 07:00:32 10° NNW 07:07:37 47° NE 07:15:16 10° ESE visible
23 Oct 6.3 02:37:48 11° NNE 02:37:48 11° NNE 02:38:16 10° NNE visible
23 Oct 6.0 04:25:12 11° NNW 04:28:41 15° NNE 04:32:38 10° NE visible
23 Oct 5.3 06:15:28 10° NNW 06:22:02 34° NE 06:29:05 10° ESE visible
24 Oct 6.0 03:41:30 13° N 03:42:31 13° N 03:45:47 10° NNE visible
24 Oct 5.7 05:30:25 10° NNW 05:36:18 26° NNE 05:42:34 10° E visible
25 Oct 6.2 02:57:50 12° N 02:57:50 12° N 02:59:24 10° NNE visible
25 Oct 5.9 04:45:20 10° NNW 04:50:24 20° NNE 04:55:46 10° ENE visible
25 Oct 4.6 06:35:40 10° NNW 06:42:57 57° NE 06:50:49 10° SE visible
26 Oct 5.9 04:01:37 13° N 04:04:23 16° NNE 04:08:48 10° NE visible
26 Oct 5.1 05:50:34 10° NNW 05:57:27 41° NE 06:04:51 10° ESE visible
27 Oct 6.1 03:18:02 14° N 03:18:15 14° N 03:21:50 10° NE visible
27 Oct 5.5 05:05:31 10° NNW 05:11:48 30° NE 05:18:31 10° E visible
27 Oct 4.1 06:56:01 10° NW 07:03:33 84° WSW 07:11:39 10° SSE visible
28 Oct 6.4 02:34:30 11° NNE 02:34:30 11° NNE 02:35:10 10° NNE visible
28 Oct 5.8 04:21:56 15° N 04:25:59 23° NNE 04:31:52 10° E visible
28 Oct 4.3 06:10:49 10° NNW 06:18:15 69° NE 06:26:16 10° SE visible
29 Oct 5.9 03:38:29 17° N 03:40:02 18° NNE 03:44:58 10° ENE visible
29 Oct 4.8 05:25:55 11° NNW 05:32:49 49° NE 05:40:30 10° ESE visible
30 Oct 6.2 02:55:07 14° NNE 02:55:07 14° NNE 02:57:58 10° NE visible
30 Oct 5.2 04:42:33 18° NNW 04:47:15 35° NE 04:54:22 10° ESE visible
30 Oct 4.0 06:31:16 10° NW 06:38:44 69° WSW 06:46:44 10° SSE visible
